Time,TemperatureF,DewpointF,PressureIn,WindDirection,WindDirectionDegrees,WindSpeedMPH,WindSpeedGustMPH,Humidity,HourlyPrecipIn,Conditions,Clouds,dailyrainin,SolarRadiationWatts/m^2,SoftwareType,DateUTC
2013-03-21 00:13:00,18.0,9.0,-100.00,West,269,8.0,18.0,68,0.00,,,0.00,1.000000,,2013-03-21 04:13:00,
2013-03-21 00:23:00,18.0,9.0,-100.00,West,269,8.0,18.0,68,0.00,,,0.00,1.000000,,2013-03-21 04:23:00,
2013-03-21 00:33:00,18.0,9.0,-100.00,West,269,8.0,18.0,68,0.00,,,0.00,1.000000,,2013-03-21 04:33:00,
2013-03-21 00:43:00,18.0,9.0,-100.00,West,269,8.0,18.0,68,0.00,,,0.00,1.000000,,2013-03-21 04:43:00,
2013-03-21 01:13:00,18.0,12.0,-100.00,West,278,7.0,13.0,77,0.00,,,0.00,1.000000,,2013-03-21 05:13:00,
2013-03-21 01:22:00,18.0,12.0,-100.00,West,278,7.0,13.0,77,0.00,,,0.00,1.000000,,2013-03-21 05:22:00,
2013-03-21 01:33:00,18.0,12.0,-100.00,West,278,7.0,13.0,77,0.00,,,0.00,1.000000,,2013-03-21 05:33:00,
2013-03-21 01:44:00,18.0,12.0,-100.00,West,278,7.0,13.0,77,0.00,,,0.00,1.000000,,2013-03-21 05:44:00,
2013-03-21 02:12:00,18.0,14.0,-100.00,West,276,7.0,11.0,83,0.00,,,0.00,0.000000,,2013-03-21 06:12:00,
2013-03-21 02:23:00,18.0,14.0,-100.00,West,276,7.0,11.0,83,0.00,,,0.00,0.000000,,2013-03-21 06:23:00,
2013-03-21 02:32:00,18.0,14.0,-100.00,West,276,7.0,11.0,83,0.00,,,0.00,0.000000,,2013-03-21 06:32:00,
2013-03-21 02:42:00,18.0,14.0,-100.00,West,276,7.0,11.0,83,0.00,,,0.00,0.000000,,2013-03-21 06:42:00,
2013-03-21 03:13:00,19.0,15.0,-100.00,West,270,7.0,10.0,85,0.00,,,0.00,1.000000,,2013-03-21 07:13:00,
2013-03-21 03:22:00,19.0,15.0,-100.00,West,270,7.0,10.0,85,0.00,,,0.00,1.000000,,2013-03-21 07:22:00,
2013-03-21 03:32:00,19.0,15.0,-100.00,West,270,7.0,10.0,85,0.00,,,0.00,1.000000,,2013-03-21 07:32:00,
2013-03-21 03:42:00,19.0,15.0,-100.00,West,270,7.0,10.0,85,0.00,,,0.00,1.000000,,2013-03-21 07:42:00,
2013-03-21 04:13:00,20.0,16.0,-100.00,WNW,301,5.0,11.0,85,0.00,,,0.00,0.000000,,2013-03-21 08:13:00,
2013-03-21 04:23:00,20.0,16.0,-100.00,WNW,301,5.0,11.0,85,0.00,,,0.00,0.000000,,2013-03-21 08:23:00,
2013-03-21 04:33:00,20.0,16.0,-100.00,WNW,301,5.0,11.0,85,0.00,,,0.00,0.000000,,2013-03-21 08:33:00,
2013-03-21 04:42:00,20.0,16.0,-100.00,WNW,301,5.0,11.0,85,0.00,,,0.00,0.000000,,2013-03-21 08:42:00,
2013-03-21 05:11:00,22.0,18.0,-100.00,WNW,295,6.0,9.0,86,0.00,,,0.00,1.000000,,2013-03-21 09:11:00,
2013-03-21 05:22:00,22.0,18.0,-100.00,WNW,295,6.0,9.0,86,0.00,,,0.00,1.000000,,2013-03-21 09:22:00,
2013-03-21 05:33:00,22.0,18.0,-100.00,WNW,295,6.0,9.0,86,0.00,,,0.00,1.000000,,2013-03-21 09:33:00,
2013-03-21 05:43:00,22.0,18.0,-100.00,WNW,295,6.0,9.0,86,0.00,,,0.00,1.000000,,2013-03-21 09:43:00,
2013-03-21 06:12:00,23.0,20.0,-100.00,WNW,302,5.0,11.0,88,0.00,,,-99.99,1.000000,,2013-03-21 10:12:00,
2013-03-21 06:23:00,23.0,20.0,-100.00,WNW,302,5.0,11.0,88,0.00,,,-99.99,1.000000,,2013-03-21 10:23:00,
2013-03-21 06:34:00,23.0,20.0,-100.00,WNW,302,5.0,11.0,88,0.00,,,-99.99,1.000000,,2013-03-21 10:34:00,
2013-03-21 06:42:00,23.0,20.0,-100.00,WNW,302,5.0,11.0,88,0.00,,,-99.99,1.000000,,2013-03-21 10:42:00,
2013-03-21 07:13:00,23.0,21.0,-100.00,NW,313,5.0,11.0,92,0.00,,,0.00,1.000000,,2013-03-21 11:13:00,
2013-03-21 07:23:00,23.0,21.0,-100.00,NW,313,5.0,11.0,92,0.00,,,0.00,1.000000,,2013-03-21 11:23:00,
2013-03-21 07:33:00,23.0,21.0,-100.00,NW,313,5.0,11.0,92,0.00,,,0.00,1.000000,,2013-03-21 11:33:00,
2013-03-21 07:43:00,23.0,21.0,-100.00,NW,313,5.0,11.0,92,0.00,,,0.00,1.000000,,2013-03-21 11:43:00,
2013-03-21 08:13:00,24.0,21.0,-100.00,NW,309,7.0,13.0,89,0.00,,,0.00,2.000000,,2013-03-21 12:13:00,
2013-03-21 08:22:00,24.0,21.0,-100.00,NW,309,7.0,13.0,89,0.00,,,0.00,2.000000,,2013-03-21 12:22:00,
2013-03-21 08:33:00,24.0,21.0,-100.00,NW,309,7.0,13.0,89,0.00,,,0.00,2.000000,,2013-03-21 12:33:00,
2013-03-21 08:43:00,24.0,21.0,-100.00,NW,309,7.0,13.0,89,0.00,,,0.00,2.000000,,2013-03-21 12:43:00,
2013-03-21 09:12:00,24.0,19.0,-100.00,NW,321,9.0,16.0,82,0.00,,,0.00,52.000000,,2013-03-21 13:12:00,
2013-03-21 09:22:00,24.0,19.0,-100.00,NW,321,9.0,16.0,82,0.00,,,0.00,52.000000,,2013-03-21 13:22:00,
2013-03-21 09:32:00,24.0,19.0,-100.00,NW,321,9.0,16.0,82,0.00,,,0.00,52.000000,,2013-03-21 13:32:00,
2013-03-21 09:42:00,24.0,19.0,-100.00,NW,321,9.0,16.0,82,0.00,,,0.00,52.000000,,2013-03-21 13:42:00,
2013-03-21 10:12:00,25.0,18.0,-100.00,NNW,328,10.0,20.0,73,0.00,,,0.00,134.000000,,2013-03-21 14:12:00,
2013-03-21 10:22:00,25.0,18.0,-100.00,NNW,328,10.0,20.0,73,0.00,,,0.00,134.000000,,2013-03-21 14:22:00,
2013-03-21 10:32:00,25.0,18.0,-100.00,NNW,328,10.0,20.0,73,0.00,,,0.00,134.000000,,2013-03-21 14:32:00,
2013-03-21 10:42:00,25.0,18.0,-100.00,NNW,328,10.0,20.0,73,0.00,,,0.00,134.000000,,2013-03-21 14:42:00,
2013-03-21 11:13:00,27.0,17.0,-100.00,NNW,331,8.0,22.0,66,0.00,,,0.00,200.000000,,2013-03-21 15:13:00,
2013-03-21 11:22:00,27.0,17.0,-100.00,NNW,331,8.0,22.0,66,0.00,,,0.00,200.000000,,2013-03-21 15:22:00,
2013-03-21 11:33:00,27.0,17.0,-100.00,NNW,331,8.0,22.0,66,0.00,,,0.00,200.000000,,2013-03-21 15:33:00,
2013-03-21 11:42:00,27.0,17.0,-100.00,NNW,331,8.0,22.0,66,0.00,,,0.00,200.000000,,2013-03-21 15:42:00,
2013-03-21 12:13:00,28.0,16.0,-100.00,NW,323,9.0,19.0,59,0.00,,,0.00,295.000000,,2013-03-21 16:13:00,
2013-03-21 12:23:00,28.0,16.0,-100.00,NW,323,9.0,19.0,59,0.00,,,0.00,295.000000,,2013-03-21 16:23:00,
2013-03-21 12:33:00,28.0,16.0,-100.00,NW,323,9.0,19.0,59,0.00,,,0.00,295.000000,,2013-03-21 16:33:00,
2013-03-21 12:42:00,28.0,16.0,-100.00,NW,323,9.0,19.0,59,0.00,,,0.00,295.000000,,2013-03-21 16:42:00,
2013-03-21 13:12:00,30.0,15.0,-100.00,NW,318,9.0,19.0,52,0.00,,,0.00,359.000000,,2013-03-21 17:12:00,
2013-03-21 13:23:00,30.0,15.0,-100.00,NW,318,9.0,19.0,52,0.00,,,0.00,359.000000,,2013-03-21 17:23:00,
2013-03-21 13:33:00,30.0,15.0,-100.00,NW,318,9.0,19.0,52,0.00,,,0.00,359.000000,,2013-03-21 17:33:00,
2013-03-21 13:43:00,30.0,15.0,-100.00,NW,318,9.0,19.0,52,0.00,,,0.00,359.000000,,2013-03-21 17:43:00,
2013-03-21 14:12:00,29.0,14.0,-100.00,NW,326,8.0,17.0,52,0.00,,,0.00,316.000000,,2013-03-21 18:12:00,
2013-03-21 14:23:00,29.0,14.0,-100.00,NW,326,8.0,17.0,52,0.00,,,0.00,316.000000,,2013-03-21 18:23:00,
2013-03-21 14:32:00,29.0,14.0,-100.00,NW,326,8.0,17.0,52,0.00,,,0.00,316.000000,,2013-03-21 18:32:00,
2013-03-21 14:42:00,29.0,14.0,-100.00,NW,326,8.0,17.0,52,0.00,,,0.00,316.000000,,2013-03-21 18:42:00,
2013-03-21 15:12:00,29.0,16.0,-100.00,NNW,333,9.0,18.0,59,0.00,,,0.00,314.000000,,2013-03-21 19:12:00,
2013-03-21 15:23:00,29.0,16.0,-100.00,NNW,333,9.0,18.0,59,0.00,,,0.00,314.000000,,2013-03-21 19:23:00,
2013-03-21 15:32:00,29.0,16.0,-100.00,NNW,333,9.0,18.0,59,0.00,,,0.00,314.000000,,2013-03-21 19:32:00,
2013-03-21 15:43:00,29.0,16.0,-100.00,NNW,333,9.0,18.0,59,0.00,,,0.00,314.000000,,2013-03-21 19:43:00,
2013-03-21 16:13:00,30.0,15.0,-100.00,NW,315,8.0,17.0,54,0.00,,,0.00,315.000000,,2013-03-21 20:13:00,
2013-03-21 16:23:00,30.0,15.0,-100.00,NW,315,8.0,17.0,54,0.00,,,0.00,315.000000,,2013-03-21 20:23:00,
2013-03-21 16:33:00,30.0,15.0,-100.00,NW,315,8.0,17.0,54,0.00,,,0.00,315.000000,,2013-03-21 20:33:00,
2013-03-21 16:42:00,30.0,15.0,-100.00,NW,315,8.0,17.0,54,0.00,,,0.00,315.000000,,2013-03-21 20:42:00,
2013-03-21 17:12:00,29.0,13.0,-100.00,NW,318,9.0,20.0,51,0.00,,,0.00,223.000000,,2013-03-21 21:12:00,
2013-03-21 17:23:00,29.0,13.0,-100.00,NW,318,9.0,20.0,51,0.00,,,0.00,223.000000,,2013-03-21 21:23:00,
2013-03-21 17:33:00,29.0,13.0,-100.00,NW,318,9.0,20.0,51,0.00,,,0.00,223.000000,,2013-03-21 21:33:00,
2013-03-21 17:43:00,29.0,13.0,-100.00,NW,318,9.0,20.0,51,0.00,,,0.00,223.000000,,2013-03-21 21:43:00,
2013-03-21 18:13:00,28.0,14.0,-100.00,NW,312,10.0,18.0,55,0.00,,,0.00,166.000000,,2013-03-21 22:13:00,
2013-03-21 18:23:00,28.0,14.0,-100.00,NW,312,10.0,18.0,55,0.00,,,0.00,166.000000,,2013-03-21 22:23:00,
2013-03-21 18:33:00,28.0,14.0,-100.00,NW,312,10.0,18.0,55,0.00,,,0.00,166.000000,,2013-03-21 22:33:00,
2013-03-21 18:42:00,28.0,14.0,-100.00,NW,312,10.0,18.0,55,0.00,,,0.00,166.000000,,2013-03-21 22:42:00,
2013-03-21 19:12:00,27.0,15.0,-100.00,NW,317,10.0,22.0,60,0.00,,,0.00,63.000000,,2013-03-21 23:12:00,
2013-03-21 19:22:00,27.0,15.0,-100.00,NW,317,10.0,22.0,60,0.00,,,0.00,63.000000,,2013-03-21 23:22:00,
2013-03-21 19:33:00,27.0,15.0,-100.00,NW,317,10.0,22.0,60,0.00,,,0.00,63.000000,,2013-03-21 23:33:00,
2013-03-21 19:43:00,27.0,15.0,-100.00,NW,317,10.0,22.0,60,0.00,,,0.00,63.000000,,2013-03-21 23:43:00,
2013-03-21 20:13:00,26.0,15.0,-100.00,NW,324,7.0,20.0,62,0.00,,,0.00,28.000000,,2013-03-22 00:13:00,
2013-03-21 20:22:00,26.0,15.0,-100.00,NW,324,7.0,20.0,62,0.00,,,0.00,28.000000,,2013-03-22 00:22:00,
2013-03-21 20:32:00,26.0,15.0,-100.00,NW,324,7.0,20.0,62,0.00,,,0.00,28.000000,,2013-03-22 00:32:00,
2013-03-21 20:42:00,26.0,15.0,-100.00,NW,324,7.0,20.0,62,0.00,,,0.00,28.000000,,2013-03-22 00:42:00,
2013-03-21 21:12:00,25.0,15.0,-100.00,NW,318,9.0,19.0,65,0.00,,,0.00,1.000000,,2013-03-22 01:12:00,
2013-03-21 21:22:00,25.0,15.0,-100.00,NW,318,9.0,19.0,65,0.00,,,0.00,1.000000,,2013-03-22 01:22:00,
2013-03-21 21:32:00,25.0,15.0,-100.00,NW,318,9.0,19.0,65,0.00,,,0.00,1.000000,,2013-03-22 01:32:00,
2013-03-21 21:43:00,25.0,15.0,-100.00,NW,318,9.0,19.0,65,0.00,,,0.00,1.000000,,2013-03-22 01:43:00,
2013-03-21 22:12:00,24.0,14.0,-100.00,NW,316,10.0,18.0,66,0.00,,,0.00,1.000000,,2013-03-22 02:12:00,
2013-03-21 22:22:00,24.0,14.0,-100.00,NW,316,10.0,18.0,66,0.00,,,0.00,1.000000,,2013-03-22 02:22:00,
2013-03-21 22:32:00,24.0,14.0,-100.00,NW,316,10.0,18.0,66,0.00,,,0.00,1.000000,,2013-03-22 02:32:00,
2013-03-21 22:43:00,24.0,14.0,-100.00,NW,316,10.0,18.0,66,0.00,,,0.00,1.000000,,2013-03-22 02:43:00,
2013-03-21 23:12:00,24.0,15.0,-100.00,NW,318,11.0,21.0,69,0.00,,,0.00,1.000000,,2013-03-22 03:12:00,
2013-03-21 23:22:00,24.0,15.0,-100.00,NW,318,11.0,21.0,69,0.00,,,0.00,1.000000,,2013-03-22 03:22:00,
2013-03-21 23:33:00,24.0,15.0,-100.00,NW,318,11.0,21.0,69,0.00,,,0.00,1.000000,,2013-03-22 03:33:00,
2013-03-21 23:43:00,24.0,15.0,-100.00,NW,318,11.0,21.0,69,0.00,,,0.00,1.000000,,2013-03-22 03:43:00,